Location: ??????
(38.0677°N, 22.9870°E)
Time: 09:48:14
(UTC+00:00)

RESURS DK-1 - Pass Details

Date: 23 May 2024
Orbit: 541 x 547 km, 69.9° (Epoch: 23 June)

Event Time Altitude Azimuth Distance (km) Brightness Sun altitude
Rises 02:08:07 0° 327° (NNW) 2,716 5.9 -11.3°
Reaches altitude 10° 02:10:26 10° 319° (NW) 1,820 4.9 -11.0°
Maximum altitude 02:14:09 36° 252° (WSW) 882 2.9 -10.4°
Drops below altitude 10° 02:17:52 10° 185° (S) 1,811 4.6 -9.8°
Sets 02:20:09 0° 177° (S) 2,700 5.5 -9.4°
